Flag for Germany Weather past 2 weeks in Mainz, Rhineland-Palatinate, Germany

Now
77 °F

Sunny.


Feels Like: 78 °F
Forecast: 60 / 81 °F
Wind: 2 mph from North

Location: Wiesbaden Airport

Current Time: Jul 31, 2014 at 4:13:30 PM

Latest Report: Jul 31, 2014 at 2:58 PM


Visibility: N/A

Pressure: 29.98 "Hg

Humidity: 44%

Dew point: 54 °F

Location of MainzLocation

Historic Weather in Mainz — Graph

°F

Mainz temperature yesterday

Maximum temperature yesterday: 73 °F (at 6:55 PM)
Minimum temperature yesterday: 66 °F (at 4:55 AM)
Average temperature yesterday: 69 °F

Past Weeks' High & Low Weather Summary

 TemperatureHumidityPressure
High92 °F (Jul 19, 4:58 PM)100% (Jul 21, 2:58 AM)30.19 "Hg (Jul 21, 2:58 AM)
Low59 °F (Jul 17, 4:58 AM)25% (Jul 18, 6:58 PM)29.72 "Hg (Jul 29, 5:57 PM)
Average73 °F67%29.93 "Hg
* Reported Jul 16 2:58 PM — Jul 31 2:58 PM, Mainz, Weather by CustomWeather, © 2014

Note: Actual official high and low records may vary slightly from our data, if they occured in-between our weather recording intervals... More about our weather records

Advertising

Mainz weather history for previous 24 hours

 ConditionsComfort  
Time TempWeatherWind HumidityBarometerVisibility
2:58 PM
Jul 31
77 °FSunny.2 mph44%29.98 "HgN/A
1:58 PM75 °FPassing clouds.5 mph54%29.98 "HgN/A
12:58 PM74 °FSunny.2 mph56%29.99 "HgN/A
11:58 AM73 °FPassing clouds.5 mph61%30.01 "HgN/A
10:58 AM72 °FSunny.2 mph65%30.01 "HgN/A
9:58 AM70 °FSunny.6 mph73%30.01 "HgN/A
8:58 AM65 °FSunny.5 mph80%30.02 "HgN/A
7:58 AM64 °FPartly sunny.6 mph83%30.00 "HgN/A
6:58 AM63 °FSunny.5 mph83%30.00 "HgN/A
5:58 AM63 °FPassing clouds.3 mph88%29.98 "HgN/A
4:58 AM64 °FOvercast.3 mph83%29.98 "HgN/A
3:58 AM64 °FOvercast.7 mph83%29.97 "HgN/A
2:58 AM64 °FOvercast.2 mph83%29.98 "HgN/A
1:58 AM64 °FOvercast.2 mph80%29.97 "HgN/A
12:58 AM66 °FOvercast.2 mph78%29.96 "HgN/A
11:58 PM
Jul 30
67 °FOvercast.1 mph76%29.96 "HgN/A
10:58 PM67 °FOvercast.2 mph79%29.95 "HgN/A
9:58 PM70 °FOvercast.2 mph69%29.94 "HgN/A
8:58 PM71 °FOvercast.5 mph65%29.92 "HgN/A
8:55 PM72 °FOvercast.5 mph100%29.92 "HgN/A
7:55 PM73 °FOvercast.5 mph61%29.90 "HgN/A
6:55 PM73 °FOvercast.9 mph65%29.88 "HgN/A
5:58 PM72 °FOvercast.9 mph69%29.88 "HgN/A
4:55 PM72 °FMore clouds than sun.8 mph73%29.88 "HgN/A
Weather by CustomWeather, © 2014

See weather overviewHow to use our weather pages